Agen Bola Sbobet
domino qiu qiu

Jackpot

Texas Poker Multi Jackpot System

Kini Telah hadir Jackpot SUPER ROYAL FLUSH

Kini Telah hadir Jackpot 2000 (khusus table VIP keatas).

Ikutilah global jackpot yang tersedia di system kami, dengan system jackpot terbaru dan pertama di indonesia, anda dapat membeli jackpot dengan harga 100 rupiah saja dan menangkan hadiahnya hingga puluhan juta rupiah.

Jackpot bukanlah suatu keharusan untuk dibeli, namun kami memberikan suatu fitur tambahan untuk member tercinta dari www.m88domino.net.

Terdapat tiga pilihan harga jackpot yang bisa anda beli yaitu :100,500,1000 dan 2000(khusus table VIP Keatas) rupiah.

Hadiah dari Multi jackpot system www.m88domino.net

  1. full house x 10 harga jackpot yang anda beli.
      (contoh:anda membeli 1000 maka:1000 X10 = 10.000)
  2. four of kind x 250 harga jackpot yang anda beli
      (contoh:anda membeli 1000 maka:1000 X250 = 250.000)
  3. Straight flush x 1200
      (contoh:anda membeli 1000 maka:1000 X1200 = 1.200.000)
  4. Royal flush x 10000 harga jackpot yang anda beli
      (contoh:anda membeli 1000 maka:1000 X10000 = 10.000.000)
  5. SUPER ROYAL FLUSH x 30000 harga jackpot yang anda beli
      (contoh:anda membeli 1000 maka:1000 X30000 = 30.000.000)

Kondisi kartu

  1. full house adalah kondisi kartu dimana kartu anda dan kartu tengah dengan total 7 kartu bisa mendapatkan nilai 5 kartu dengan kombinasi 1 tris(three of kind) dan 1 pair, contoh 3 kartu 10 dan 2 kartu 5
  2. Four of kind adalah kondisi kartu dimana kartu anda dan kartu tengah dengan total 7 kartu bisa mendapatkan nilai 5 kartu dengan kombinasi 4 kartu yang sama jumlah dan 1 kartu apapun juga contoh anda mendapatkan 4 buah kartu angka 3 dan 1 kartu apapun.
  3. Staright flush adalah kondisi kartu dimana kartu anda dan kartu tengah dengan total 7 kartu bisa mendapatkan nilai 5 kartu dengan kombinasi seri / staright dengan kembang yang sama contoh : urutan kartu dari angka 5, 6, 7, 8 , 9 10 dengan kembang yg sama misalnya as hati
  4. Royal flush adalah kondisi kartu dimana kartu anda dan kartu tengah dengan total 7 kartu bisa mendapatkan nilai 5 kartu dengan kombinasi seri / staright dengan kembang yang sama tetapi kartu tersebut haruslah dimulai dari 10. contoh 10, Queen, Jack, King dan aces dengan kembang yang sama
  5. Super Royal flush adalah kondisi kartu dimana Kedua kartu anda digabung dengan 3 kartu pertama meja haruslah royal flush. contoh kartu anda 10,Queen kembang sama dan 3 kartu pertama meja adalah Jack, King dan aces dengan kembang yang sama

Demikian adalah penjelasan dari Multi Jackpot www.m88domino.net terima kasih dan selamat bermain salam hoki dari kami

Texas Poker Jackpot Winner

TOP SUPER ROYAL FLUSH
No.TanggalNamaPriceWin
123/07 20:51FAIHA999Super Royal flush15,000,000
223/07 18:55BUTE88Super Royal flush3,000,000
323/07 17:16IMS99Super Royal flush6,000,000
423/07 15:42MAMAIK45Super Royal flush30,000,000
523/07 11:44CARIUANGJPSuper Royal flush6,000,000
TOP ROYAL FLUSH
No.TanggalNamaPriceWin
123/07 21:28WKTURBZ4CBRoyal flush5,000,000
223/07 21:25NDHOL94Royal flush2,000,000
323/07 21:25UNGU14Royal flush2,000,000
423/07 21:25MAKMUR1968Royal flush5,000,000
523/07 21:25F7110008Royal flush2,000,000
TOP STRAIGHT FLUSH
No.TanggalNamaPriceWin
123/07 21:27WAK_ANTO46Straight Flush120,000
223/07 21:23UBCPOKERStraight Flush1,200,000
323/07 21:19TETI19Straight Flush120,000
423/07 21:17KERING15Straight Flush240,000
523/07 21:15CUCUIMUTStraight Flush240,000
LATEST JACKPOT
No.TanggalNamaPriceWin
123/07 21:30N17204T07S68J6UFull House10,000
223/07 21:30THEZO76Full House10,000
323/07 21:30TABARANOFull House1,000
423/07 21:30PDVA3JOC73Full House2,000
523/07 21:30HASRI84Full House2,000
623/07 21:30MELODY79Full House10,000
723/07 21:30VDV5AAEQYHFour Of A Kind250,000
823/07 21:30IDK882216Full House10,000
923/07 21:30WIN_ARTFour Of A Kind50,000
1023/07 21:30BAMZ777Full House20,000
1123/07 21:30JUHARI12Four Of A Kind25,000
1223/07 21:30JUNODGELOFull House20,000
1323/07 21:30LUNATHICFour Of A Kind50,000
1423/07 21:30ALLVINBYFull House1,000
1523/07 21:30IMEL_RYFull House5,000
1623/07 21:30RARANGFull House1,000
1723/07 21:30POCOPOCO88Full House2,000
1823/07 21:30O1TKPNG0XFFull House1,000
1923/07 21:30C0LDENTFull House5,000
2023/07 21:30OMPIETZFull House500
2123/07 21:30OSMENFull House1,000
2223/07 21:30WANS65Full House10,000
2323/07 21:30WILLBOY2Full House1,000
2423/07 21:30AMIRA1111Full House1,000
2523/07 21:30VKONKK88Full House2,000
2623/07 21:30VERI888Full House2,000
2723/07 21:30UBINEKFull House5,000
2823/07 21:29JOQESFull House1,000
2923/07 21:29WIWIDWIFour Of A Kind125,000
3023/07 21:29PLGADE789Full House2,000
3123/07 21:29DONNYY97Full House500
3223/07 21:29CRAZYBOYZFour Of A Kind250,000
3323/07 21:29TESCAADAMFull House1,000
3423/07 21:29YPDIEDWOC8Full House2,000
3523/07 21:29TEMPUR123Full House2,000
3623/07 21:29CB9GY6JBICFull House1,000
3723/07 21:29JON67604Full House5,000
3823/07 21:29MANSUFull House2,000
3923/07 21:29ROBIE85Full House10,000
4023/07 21:29P4N1N94NFull House5,000
4123/07 21:29BAND1T27Full House1,000
4223/07 21:29MOZZA00Full House5,000
4323/07 21:29SAKITGIGI7Full House500
4423/07 21:29YOU_LOSE00Four Of A Kind25,000
4523/07 21:29BONARD_Full House1,000
4623/07 21:29CUTBERAY46Full House2,000
4723/07 21:29TOKIP324Full House5,000
4823/07 21:29ANDIVALEFull House1,000
4923/07 21:29BAIKBOSS98Full House2,000
5023/07 21:29ANAKULAMA1Full House5,000

Domino Multi Jackpot System

Ikutilah global jackpot yang tersedia di system kami, dengan system jackpot terbaru dan pertama di indonesia, anda dapat membeli jackpot dengan harga 100 rupiah saja dan menangkan hadiahnya hingga puluhan juta rupiah.

Jackpot bukanlah suatu keharusan untuk dibeli, namun kami memberikan suatu fitur tambahan untuk member tercinta dari www.m88domino.net.

Terdapat tiga pilihan harga jackpot yang bisa anda beli yaitu :100,500 dan 1000 rupiah.

Hadiah dari Multi jackpot system www.m88domino.net

  1. Murni Kecil x 50 harga jackpot yang anda beli.
      (contoh:anda membeli 1000 maka:1000 X 50 = 50.000)
  2. Murni Besar x 50 harga jackpot yang anda beli
      (contoh:anda membeli 1000 maka:1000 X 50 = 50.000)
  3. BALAK x 100 harga jackpot yang anda beli
      (contoh:anda membeli 1000 maka:1000 X 100 = 100.000)
  4. ENAM DEWA x 6666 harga jackpot yang anda beli
      (contoh:anda membeli 1000 maka:1000 X 6666 = 6.666.000)

Demikian adalah penjelasan dari Multi Jackpot www.m88domino.net terima kasih dan selamat bermain salam hoki dari kami

Domino Jackpot Winner

TOP ENAM DEWA
No.TanggalNamaPriceWin
123/07 19:25RAHARJ0murni enam6,666,000
223/07 18:39RHILY01murni enam6,666,000
323/07 15:06PEMBELImurni enam3,333,000
423/07 11:16ERNA1290murni enam6,666,000
523/07 08:51JVPIG2GJO4murni enam666,600
TOP BALAK
No.TanggalNamaPriceWin
123/07 21:28ZIVIbalak10,000
223/07 21:27WAKDEN21balak50,000
323/07 21:24ATTO918balak50,000
423/07 21:21BERAT_44balak50,000
523/07 21:18FDS44WQbalak100,000
LATEST JACKPOT
No.TanggalNamaPriceWin
123/07 21:29KURO67murni kecil5,000
223/07 21:29KUN72murni besar50,000
323/07 21:28ZIVIbalak10,000
423/07 21:28T4D0013104murni kecil50,000
523/07 21:28SONANTImurni besar50,000
623/07 21:28UNDUNKmurni kecil25,000
723/07 21:27S17166ZDEASR21Dmurni kecil50,000
823/07 21:27WAKDEN21balak50,000
923/07 21:25TURBUNmurni besar25,000
1023/07 21:25SAEFUL8882murni besar25,000
1123/07 21:24ATTO918balak50,000
1223/07 21:23J0KERJ0SSmurni besar5,000
1323/07 21:23FAST1murni besar25,000
1423/07 21:23CAKMACAK99murni besar50,000
1523/07 21:23BNNSABUmurni besar50,000
1623/07 21:23M4DG0B3Rmurni kecil50,000
1723/07 21:23ASTAGImurni besar25,000
1823/07 21:21ZIVImurni besar5,000
1923/07 21:21BERAT_44balak50,000
2023/07 21:21KALAH170murni besar5,000
2123/07 21:20REKOP66murni kecil25,000
2223/07 21:20AKUNTAE88murni kecil50,000
2323/07 21:18FDS44WQbalak100,000
2423/07 21:18JAGAU99murni kecil25,000
2523/07 21:18APPARA11murni besar50,000
2623/07 21:18BRUM99murni kecil25,000
2723/07 21:17DM185391balak50,000
2823/07 21:17BGTEGO12murni besar50,000
2923/07 21:17AYAHSYUmurni besar50,000
3023/07 21:17WAKDEN21murni besar25,000
3123/07 21:15BONENG01murni besar50,000
3223/07 21:15BRANTASSSmurni kecil50,000
3323/07 21:15JHO81murni besar25,000
3423/07 21:14LIMPAHHHbalak100,000
3523/07 21:13E3FB7B36murni kecil50,000
3623/07 21:13HIDAYAH04murni kecil5,000
3723/07 21:13MOLORIAmurni besar25,000
3823/07 21:13MMOOPmurni besar50,000
3923/07 21:12BR4NBRYNmurni besar50,000
4023/07 21:12BRANTASSSmurni kecil50,000
4123/07 21:12UMARSANUSImurni kecil25,000
4223/07 21:12WAHI99murni besar25,000
4323/07 21:12VLOCYbalak100,000
4423/07 21:12VLOCYmurni besar50,000
4523/07 21:11STTST12murni kecil50,000
4623/07 21:10PETOK10murni besar50,000
4723/07 21:10AYAHSYUmurni kecil50,000
4823/07 21:10ALECCmurni besar50,000
4923/07 21:10ROBBYPIL17murni besar25,000
5023/07 21:10LASINO23balak100,000

Ceme Multi Jackpot System

Jackpot dilihat dari gabungan kartu pemain dengan kartu bandar. Bandar harus membeli jackpot sebanyak jumlah player yang sedang duduk. Sebagai contoh bila terdapat 3 pemain duduk bermain, dan bandar memutuskan untuk membeli jackpot Rp 1.000, maka pada periode tersebut bandar akan membeli jackpot sebanyak 3xRp1.000 = Rp3.000.

Jackpot bukanlah suatu keharusan untuk dibeli, namun kami memberikan suatu fitur tambahan untuk member tercinta dari www.m88domino.net.

Terdapat tiga pilihan harga jackpot yang bisa anda beli yaitu :100,500 dan 1000 rupiah.

Hadiah dari Multi jackpot system www.m88domino.net

  1. Murni Kecil x 50 harga jackpot yang anda beli.
      (contoh:anda membeli 1000 maka:1000 X 50 = 50.000)
  2. Murni Besar x 50 harga jackpot yang anda beli
      (contoh:anda membeli 1000 maka:1000 X 50 = 50.000)
  3. BALAK x 200 harga jackpot yang anda beli
      (contoh:anda membeli 1000 maka:1000 X 200 = 200.000)
  4. ENAM DEWA x 6666 harga jackpot yang anda beli
      (contoh:anda membeli 1000 maka:1000 X 6666 = 6.666.000)

Demikian adalah penjelasan dari Multi Jackpot www.m88domino.net terima kasih dan selamat bermain salam hoki dari kami

Ceme Jackpot Winner

TOP ENAM DEWA
No.TanggalNamaPriceWin
123/07 21:26ABUDI7murni enam6,666,000
223/07 21:14NAGUT10murni enam666,600
323/07 21:00JHECKY88murni enam6,666,000
423/07 20:57ARWOZOWOmurni enam6,666,000
523/07 20:57CRITPOMmurni enam6,666,000
TOP BALAK
No.TanggalNamaPriceWin
123/07 21:30HUNI459balak200,000
223/07 21:30MANDOVJAKbalak100,000
323/07 21:28HMR12balak200,000
423/07 21:27EVERLYNbalak200,000
523/07 21:26GALAN09118balak200,000
LATEST JACKPOT
No.TanggalNamaPriceWin
123/07 21:30GONDEZSSSmurni kecil25,000
223/07 21:30DA2NAR4Amurni besar25,000
323/07 21:30HUNI459balak200,000
423/07 21:30MANDOVJAKbalak100,000
523/07 21:30KOSAImurni kecil50,000
623/07 21:29LINCAH212murni besar25,000
723/07 21:29MARTA754murni kecil25,000
823/07 21:29OLIW88murni kecil5,000
923/07 21:29JOYCIMEKmurni kecil5,000
1023/07 21:29PUPUT0511murni besar25,000
1123/07 21:29NENGTI77murni kecil50,000
1223/07 21:29NENGTI77murni kecil50,000
1323/07 21:29ROSSES9494murni besar5,000
1423/07 21:29IRSYADAFIFmurni besar50,000
1523/07 21:28NUGRAHA25murni kecil50,000
1623/07 21:28VK666murni kecil50,000
1723/07 21:28RICKYADITYmurni kecil5,000
1823/07 21:28ANSWEARmurni besar25,000
1923/07 21:28HMR12balak200,000
2023/07 21:28NIECSGXFVmurni besar50,000
2123/07 21:28AMELIAJSCmurni besar50,000
2223/07 21:28DJNESTAmurni kecil5,000
2323/07 21:28NOPPY94murni kecil50,000
2423/07 21:28NENGTI77murni besar50,000
2523/07 21:28METALIZEmurni besar50,000
2623/07 21:28ANTZ24murni besar50,000
2723/07 21:28JUNIOR7899murni besar50,000
2823/07 21:28BJOL99murni kecil50,000
2923/07 21:28STYLENJOYmurni kecil25,000
3023/07 21:28IKUTIKUTANmurni besar50,000
3123/07 21:27E5DAD5FCmurni kecil25,000
3223/07 21:27D952C030murni kecil5,000
3323/07 21:27MONIKA79murni kecil5,000
3423/07 21:27IRSYADAFIFmurni besar50,000
3523/07 21:27BD_99JPmurni kecil25,000
3623/07 21:27PNJ0Lmurni kecil50,000
3723/07 21:27EVERLYNbalak200,000
3823/07 21:27BAWEL6666murni kecil50,000
3923/07 21:27UZI6666murni kecil50,000
4023/07 21:27RAUTBOSImurni besar50,000
4123/07 21:27C4M3Kmurni kecil5,000
4223/07 21:27ANGKE777murni kecil50,000
4323/07 21:26RICKYADITYmurni besar5,000
4423/07 21:26WONTOK15murni besar25,000
4523/07 21:26OWEMEEZINGmurni kecil5,000
4623/07 21:26IRSYADAFIFmurni kecil50,000
4723/07 21:26YOG1_888murni kecil25,000
4823/07 21:26ADAM20murni besar50,000
4923/07 21:26CIPUT93murni besar25,000
5023/07 21:26NATAMAROmurni besar50,000